Regional Weather Roundup
Issued by NWS Kansas City/Pleasant Hill, MO

Home | Current Version | Previous Version | Graphics & Text | Print | Product List | Glossary Off
Versions: 1 2 3 4 5 6 7 8 9 10 11 12 13 14 15 16 17 18 19 20 21 22 23 24 25 26 27 28 29 30 31 32 33 34 35 36 37 38 39 40 41 42 43 44 45 46 47 48 49 50

000
ASUS43 KEAX 030310
RWREAX

WEATHER ROUNDUP FOR EASTERN KANSAS AND NORTHWEST MISSOURI
NATIONAL WEATHER SERVICE KANSAS CITY/PLEASANT HILL MO
900 PM CST FRI DEC 02 2016

KSZ040-057-103>105-MOZ028-029-037-043-030400-
...KANSAS CITY METROPOLITAN AREA...

CITY           SKY/WX    TMP DP  RH WIND       PRES   REMARKS
K.C. INTL      PTCLDY    35  24  64 NE5       30.31F WCI  31
K.C. DOWNTOWN  PTCLDY    39  29  67 CALM      30.32S
LEES SUMMIT    CLOUDY    38  27  64 NE5       30.32S WCI  34
OLATHE - IXD   CLEAR     33  26  75 NE5       30.32R WCI  29
OLATHE - OJC   CLEAR     37  26  64 NE6       30.31S WCI  32
LAWRENCE       CLEAR     31  25  78 CALM      30.32R

$$

MOZ001>008-011>017-020>025-030>033-038>040-044>046-053-054-030400-
...NORTHERN AND CENTRAL MISSOURI...

CITY           SKY/WX    TMP DP  RH WIND       PRES   REMARKS
ST. JOSEPH     CLEAR     27  22  81 CALM      30.33F
MOSBY          CLEAR     30  27  86 CALM      30.32F
WARRENSBURG    CLOUDY    34  27  75 N5        30.31S WCI  30
WHITEMAN AFB   CLOUDY    35  26  72 CALM      30.30F
CLINTON        MOCLDY    34  27  75 CALM      30.31S
SEDALIA        CLOUDY    38  26  62 NE3       30.32F
WARSAW         NOT AVBL
CHILLICOTHE      N/A     28  25  88 CALM      30.34S
KIRKSVILLE     CLEAR     33  29  85 NE6       30.33F WCI  28

$$

MOZ041-047>049-056>058-063>065-088>090-097-030400-
...EASTERN AND SOUTHERN MISSOURI...

CITY           SKY/WX    TMP DP  RH WIND       PRES   REMARKS
ST. LOUIS INTL CLOUDY    37  27  67 CALM      30.34S
SPIRIT OF STL  CLOUDY    31  28  89 CALM      30.34S
COLUMBIA       PTCLDY    36  27  69 NE6       30.32S WCI  31
JEFFERSON CITY CLOUDY    32  25  75 CALM      30.34R
ROLLA          PTCLDY    32  25  75 NE3       30.30S
SPRINGFIELD    CLOUDY    47  25  42 E6        30.28R
BRANSON        CLOUDY    46  32  57 E7        30.27R
JOPLIN         CLOUDY    47  27  45 NE7       30.27R
WEST PLAINS    PTCLDY    39  28  64 E3        30.30R

$$

IAZ060-094-KSZ022-034>040-054-083-096-NEZ052-066-093-030400-
...KANSAS...SOUTHEAST NEBRASKA AND IOWA...

CITY           SKY/WX    TMP DP  RH WIND       PRES   REMARKS
TOPEKA         CLEAR     33  25  72 N5        30.31F WCI  29
MANHATTAN      CLEAR     33  26  75 CALM      30.31S
EMPORIA        PTCLDY    36  26  67 NE7       30.29R WCI  30
CHANUTE        PTCLDY    43  27  53 NE7       30.29R
WICHITA        CLOUDY    45  23  42 NE9       30.27R
OMAHA          CLOUDY    32  26  78 N5        30.34F WCI  27
LINCOLN        CLEAR     31  26  82 CALM      30.35R
FALLS CITY       N/A    N/A N/A N/A MISG      30.32S
LAMONI         CLEAR     32  27  81 N5        30.33S WCI  27
DES MOINES     CLOUDY    38  33  82 CALM      30.35R

$$




USA.gov is the U.S. government's official web portal to all federal, state and local government web resources and services.